Location: *
(49.3500°N, 12.6000°E)
Time: 04:01:41
(UTC+00:00)

STARLINK-33 - Pass Details

Date: 18 October 2019
Orbit: 548 x 552 km, 53.0° (Epoch: 12 November)

Event Time Altitude Azimuth Distance (km) Brightness Sun altitude
Rises 17:06:10 0° 255° (WSW) 2,711 9.2 -9.2°
Reaches altitude 10° 17:08:24 10° 257° (WSW) 1,820 7.9 -9.5°
Maximum altitude 17:12:32 70° 342° (NNW) 587 3.8 -10.2°
Enters shadow 17:16:07 14° 65° (ENE) 1,607 5.4 -10.8°
